Starlink 34955

operational
NORAD ID: 65192 Int'l Des: 2025-175 Owner: SPXS Country: US Constellation: starlink
LEOCIRCULARRETROGRADESSO

Über Starlink 34955

Beschreibung wird geladen...

Live-Position

3D-Globus wird geladen...

Nächste Überflüge

Höhenverlauf

Altitude vs Time

uPlot chart will show altitude changes over time

Zweizeiliger Elementsatz

1 65192U 25175U 25340.91793647 .00011204 00000-0 77925-3 0 9994
2 65192 97.6025 211.2580 0002327 86.1427 274.0066 15.05658807 18655
Epoch: 6. Dez. 2025 • Age: 20 hours

Aktueller Status

Höhe 579.4 km
Geschwindigkeit 7.57 km/s
Subsatellitenpunkt -82.03°S, 31.43°W
Startdatum 14. Aug. 2025
Alter 0.3 years
Typ internet

Technische Details

Klassifizierung Payload
Masse 575.00 kg
Trockenmasse 530.00 kg
Gesamtmasse 575.00 kg
Länge 0.30 m
Durchmesser 4.10 m
Spannweite 29.00 m
Form Box + pan
Hersteller SPXS
Bus-Typ Starlink V2MO
Phasenstatus In Orbit
Besitzer/Staat SPXS/US

Große Konstellationen

Loading constellations...